Time,TemperatureF,DewpointF,PressureIn,WindDirection,WindDirectionDegrees,WindSpeedMPH,WindSpeedGustMPH,Humidity,HourlyPrecipIn,Conditions,Clouds,dailyrainin,SoftwareType,DateUTC
2013-03-24 00:03:00,29.0,19.0,29.92,NNW,341,3.0,7.0,65,0.00,,,0.04,,2013-03-24 04:03:00,
2013-03-24 00:13:00,29.0,19.0,29.92,NNW,341,3.0,7.0,65,0.00,,,0.04,,2013-03-24 04:13:00,
2013-03-24 00:23:00,29.0,19.0,29.92,NNW,334,2.0,7.0,65,0.00,,,0.04,,2013-03-24 04:23:00,
2013-03-24 00:33:00,29.0,19.0,29.92,North,354,3.0,5.0,66,0.00,,,0.04,,2013-03-24 04:33:00,
2013-03-24 00:43:00,29.0,19.0,29.92,North,354,3.0,5.0,66,0.00,,,0.04,,2013-03-24 04:43:00,
2013-03-24 00:53:00,29.0,19.0,29.91,North,351,2.0,5.0,66,0.00,,,0.04,,2013-03-24 04:53:00,
2013-03-24 01:02:00,29.0,19.0,29.91,NNW,348,3.0,6.0,66,0.00,,,0.04,,2013-03-24 05:02:00,
2013-03-24 01:13:00,29.0,19.0,29.91,NNW,348,3.0,6.0,66,0.00,,,0.04,,2013-03-24 05:13:00,
2013-03-24 01:23:00,28.0,18.0,29.92,NNW,345,3.0,7.0,66,0.00,,,0.04,,2013-03-24 05:23:00,
2013-03-24 01:32:00,28.0,18.0,29.92,North,357,3.0,5.0,66,0.00,,,0.04,,2013-03-24 05:32:00,
2013-03-24 01:42:00,28.0,18.0,29.92,North,357,3.0,5.0,66,0.00,,,0.04,,2013-03-24 05:42:00,
2013-03-24 01:52:00,28.0,18.0,29.92,NNW,347,2.0,5.0,66,0.00,,,0.04,,2013-03-24 05:52:00,
2013-03-24 02:02:00,28.0,18.0,29.92,NNW,337,2.0,4.0,66,0.00,,,0.04,,2013-03-24 06:02:00,
2013-03-24 02:12:00,28.0,18.0,29.92,NNW,337,2.0,4.0,66,0.00,,,0.04,,2013-03-24 06:12:00,
2013-03-24 02:22:00,28.0,18.0,29.91,North,2,2.0,4.0,66,0.00,,,0.04,,2013-03-24 06:22:00,
2013-03-24 02:32:00,28.0,18.0,29.91,North,352,2.0,5.0,67,0.00,,,0.04,,2013-03-24 06:32:00,
2013-03-24 02:42:00,28.0,18.0,29.91,North,352,2.0,5.0,67,0.00,,,0.04,,2013-03-24 06:42:00,
2013-03-24 02:52:00,28.0,18.0,29.91,North,0,2.0,4.0,67,0.00,,,0.04,,2013-03-24 06:52:00,
2013-03-24 03:02:00,28.0,18.0,29.90,North,0,2.0,5.0,67,0.00,,,0.04,,2013-03-24 07:02:00,
2013-03-24 03:12:00,28.0,18.0,29.90,North,0,2.0,5.0,67,0.00,,,0.04,,2013-03-24 07:12:00,
2013-03-24 03:22:00,27.0,18.0,29.89,North,358,3.0,5.0,68,0.00,,,0.04,,2013-03-24 07:22:00,
2013-03-24 03:32:00,27.0,18.0,29.88,North,0,0.0,3.0,68,0.00,,,0.04,,2013-03-24 07:32:00,
2013-03-24 03:42:00,27.0,18.0,29.88,North,0,0.0,3.0,68,0.00,,,0.04,,2013-03-24 07:42:00,
2013-03-24 03:52:00,27.0,18.0,29.86,North,0,0.0,3.0,68,0.00,,,0.04,,2013-03-24 07:52:00,
2013-03-24 04:03:00,26.0,17.0,29.86,North,0,0.0,0.0,69,0.00,,,0.04,,2013-03-24 08:03:00,
2013-03-24 04:12:00,26.0,17.0,29.86,North,0,0.0,0.0,69,0.00,,,0.04,,2013-03-24 08:12:00,
2013-03-24 04:22:00,24.0,16.0,29.86,North,0,0.0,0.0,70,0.00,,,0.04,,2013-03-24 08:22:00,
2013-03-24 04:32:00,24.0,16.0,29.86,NNE,22,0.0,1.0,72,0.00,,,0.04,,2013-03-24 08:32:00,
2013-03-24 04:42:00,24.0,16.0,29.86,NNE,22,0.0,1.0,72,0.00,,,0.04,,2013-03-24 08:42:00,
2013-03-24 04:52:00,23.0,16.0,29.87,North,0,2.0,5.0,73,0.00,,,0.04,,2013-03-24 08:52:00,
2013-03-24 05:02:00,23.0,16.0,29.88,ENE,67,0.0,0.0,73,0.00,,,0.04,,2013-03-24 09:02:00,
2013-03-24 05:12:00,23.0,16.0,29.88,ENE,67,0.0,0.0,73,0.00,,,0.04,,2013-03-24 09:12:00,
2013-03-24 05:22:00,23.0,16.0,29.88,North,0,0.0,3.0,74,0.00,,,0.04,,2013-03-24 09:22:00,
2013-03-24 05:33:00,23.0,16.0,29.88,North,10,3.0,4.0,74,0.00,,,0.04,,2013-03-24 09:33:00,
2013-03-24 05:42:00,23.0,16.0,29.88,North,10,3.0,4.0,74,0.00,,,0.04,,2013-03-24 09:42:00,
2013-03-24 05:53:00,23.0,17.0,29.89,NNE,18,2.0,6.0,76,0.00,,,0.04,,2013-03-24 09:53:00,
2013-03-24 06:03:00,23.0,16.0,29.89,North,353,4.0,5.0,75,0.00,,,0.04,,2013-03-24 10:03:00,
2013-03-24 06:12:00,23.0,16.0,29.89,North,353,4.0,5.0,75,0.00,,,0.04,,2013-03-24 10:12:00,
2013-03-24 06:23:00,23.0,17.0,29.89,North,357,4.0,6.0,76,0.00,,,0.04,,2013-03-24 10:23:00,
2013-03-24 06:33:00,24.0,18.0,29.88,NNE,14,2.0,4.0,77,0.00,,,0.04,,2013-03-24 10:33:00,
2013-03-24 06:42:00,24.0,18.0,29.88,NNE,14,2.0,4.0,77,0.00,,,0.04,,2013-03-24 10:42:00,
2013-03-24 06:52:00,24.0,18.0,29.88,North,0,0.0,3.0,77,0.00,,,0.04,,2013-03-24 10:52:00,
2013-03-24 07:03:00,24.0,18.0,29.88,North,0,0.0,4.0,76,0.00,,,0.04,,2013-03-24 11:03:00,
2013-03-24 07:12:00,24.0,18.0,29.88,North,0,0.0,4.0,76,0.00,,,0.04,,2013-03-24 11:12:00,
2013-03-24 07:22:00,24.0,18.0,29.89,North,0,0.0,0.0,76,0.00,,,0.04,,2013-03-24 11:22:00,
2013-03-24 07:33:00,24.0,18.0,29.89,NNE,22,0.0,0.0,76,0.00,,,0.04,,2013-03-24 11:33:00,
2013-03-24 07:42:00,24.0,18.0,29.89,NNE,22,0.0,0.0,76,0.00,,,0.04,,2013-03-24 11:42:00,
2013-03-24 07:52:00,25.0,19.0,29.89,NNE,22,0.0,0.0,76,0.00,,,0.04,,2013-03-24 11:52:00,
2013-03-24 08:03:00,25.0,19.0,29.89,NNE,22,0.0,0.0,76,0.00,,,0.04,,2013-03-24 12:03:00,
2013-03-24 08:12:00,25.0,19.0,29.89,NNE,22,0.0,0.0,76,0.00,,,0.04,,2013-03-24 12:12:00,
2013-03-24 08:22:00,27.0,20.0,29.89,North,0,0.0,0.0,75,0.00,,,0.04,,2013-03-24 12:22:00,
2013-03-24 08:32:00,28.0,21.0,29.91,NNW,337,0.0,3.0,74,0.00,,,0.04,,2013-03-24 12:32:00,
2013-03-24 08:42:00,28.0,21.0,29.91,NNW,337,0.0,3.0,74,0.00,,,0.04,,2013-03-24 12:42:00,
2013-03-24 08:52:00,29.0,21.0,29.91,West,270,0.0,0.0,73,0.00,,,0.04,,2013-03-24 12:52:00,
2013-03-24 09:02:00,30.0,22.0,29.91,NNW,337,0.0,0.0,71,0.00,,,0.04,,2013-03-24 13:02:00,
2013-03-24 09:12:00,30.0,22.0,29.91,NNW,337,0.0,0.0,71,0.00,,,0.04,,2013-03-24 13:12:00,
2013-03-24 09:22:00,32.0,23.0,29.90,NW,315,0.0,0.0,69,0.00,,,0.04,,2013-03-24 13:22:00,
2013-03-24 09:32:00,33.0,24.0,29.90,North,0,2.0,3.0,68,0.00,,,0.04,,2013-03-24 13:32:00,
2013-03-24 09:42:00,33.0,24.0,29.90,North,0,2.0,3.0,68,0.00,,,0.04,,2013-03-24 13:42:00,
2013-03-24 09:52:00,34.0,24.0,29.90,North,0,2.0,3.0,66,0.00,,,0.04,,2013-03-24 13:52:00,
2013-03-24 10:02:00,35.0,24.0,29.91,West,269,2.0,5.0,64,0.00,,,0.04,,2013-03-24 14:02:00,
2013-03-24 10:12:00,35.0,24.0,29.91,West,269,2.0,5.0,64,0.00,,,0.04,,2013-03-24 14:12:00,
2013-03-24 10:22:00,35.0,24.0,29.91,NW,320,3.0,6.0,63,0.00,,,0.04,,2013-03-24 14:22:00,
2013-03-24 10:32:00,35.0,23.0,29.91,NNW,330,2.0,5.0,61,0.00,,,0.04,,2013-03-24 14:32:00,
2013-03-24 10:42:00,35.0,23.0,29.91,NNW,330,2.0,5.0,61,0.00,,,0.04,,2013-03-24 14:42:00,
2013-03-24 10:53:00,37.0,24.0,29.90,NNW,329,3.0,6.0,58,0.00,,,0.04,,2013-03-24 14:53:00,
2013-03-24 11:02:00,37.0,23.0,29.90,NNW,341,3.0,6.0,56,0.00,,,0.04,,2013-03-24 15:02:00,
2013-03-24 11:12:00,37.0,23.0,29.90,NNW,341,3.0,6.0,56,0.00,,,0.04,,2013-03-24 15:12:00,
2013-03-24 11:22:00,38.0,22.0,29.90,WNW,297,3.0,5.0,53,0.00,,,0.04,,2013-03-24 15:22:00,
2013-03-24 11:33:00,38.0,21.0,29.91,NW,324,2.0,6.0,50,0.00,,,0.04,,2013-03-24 15:33:00,
2013-03-24 11:43:00,38.0,21.0,29.91,NW,324,2.0,6.0,50,0.00,,,0.04,,2013-03-24 15:43:00,
2013-03-24 11:53:00,39.0,21.0,29.91,NNW,329,3.0,4.0,49,0.00,,,0.04,,2013-03-24 15:53:00,
2013-03-24 12:03:00,40.0,22.0,29.90,WSW,257,3.0,7.0,48,0.00,,,0.04,,2013-03-24 16:03:00,
2013-03-24 12:12:00,40.0,22.0,29.90,WSW,257,3.0,7.0,48,0.00,,,0.04,,2013-03-24 16:12:00,
2013-03-24 12:23:00,41.0,21.0,29.89,North,355,4.0,6.0,45,0.00,,,0.04,,2013-03-24 16:23:00,
2013-03-24 12:33:00,42.0,21.0,29.87,NNW,347,4.0,7.0,43,0.00,,,0.04,,2013-03-24 16:33:00,
2013-03-24 12:42:00,42.0,21.0,29.87,NNW,347,4.0,7.0,43,0.00,,,0.04,,2013-03-24 16:42:00,
2013-03-24 12:52:00,42.0,21.0,29.87,North,350,2.0,6.0,43,0.00,,,0.04,,2013-03-24 16:52:00,
2013-03-24 13:02:00,42.0,21.0,29.86,North,11,2.0,7.0,43,0.00,,,0.04,,2013-03-24 17:02:00,
2013-03-24 13:12:00,42.0,21.0,29.86,North,11,2.0,7.0,43,0.00,,,0.04,,2013-03-24 17:12:00,
2013-03-24 13:23:00,42.0,21.0,29.85,NNE,14,3.0,8.0,42,0.00,,,0.02,,2013-03-24 17:23:00,
2013-03-24 13:33:00,41.0,20.0,29.84,NNE,17,5.0,6.0,42,0.00,,,0.02,,2013-03-24 17:33:00,
2013-03-24 13:42:00,41.0,20.0,29.84,NNE,17,5.0,6.0,42,0.00,,,0.02,,2013-03-24 17:42:00,
2013-03-24 13:53:00,41.0,20.0,29.84,NNW,341,4.0,7.0,42,0.00,,,0.02,,2013-03-24 17:53:00,
2013-03-24 14:03:00,41.0,20.0,29.84,NNE,23,2.0,5.0,43,0.00,,,0.02,,2013-03-24 18:03:00,
2013-03-24 14:12:00,41.0,20.0,29.84,NNE,23,2.0,5.0,43,0.00,,,0.02,,2013-03-24 18:12:00,
2013-03-24 14:22:00,42.0,19.0,29.83,NNE,32,4.0,9.0,40,0.00,,,0.02,,2013-03-24 18:22:00,
2013-03-24 14:32:00,42.0,20.0,29.82,North,356,5.0,8.0,41,0.00,,,0.00,,2013-03-24 18:32:00,
2013-03-24 14:43:00,42.0,20.0,29.82,North,356,5.0,8.0,41,0.00,,,0.00,,2013-03-24 18:43:00,
2013-03-24 14:52:00,42.0,19.0,29.81,NNE,14,3.0,7.0,40,0.00,,,0.00,,2013-03-24 18:52:00,
2013-03-24 15:02:00,41.0,19.0,29.80,North,349,4.0,5.0,41,0.00,,,0.00,,2013-03-24 19:02:00,
2013-03-24 15:12:00,41.0,19.0,29.80,North,349,4.0,5.0,41,0.00,,,0.00,,2013-03-24 19:12:00,
2013-03-24 15:22:00,41.0,19.0,29.79,North,7,6.0,9.0,41,0.00,,,0.00,,2013-03-24 19:22:00,
2013-03-24 15:32:00,40.0,18.0,29.78,NNE,21,2.0,10.0,41,0.00,,,0.00,,2013-03-24 19:32:00,
2013-03-24 15:42:00,40.0,18.0,29.78,NNE,21,2.0,10.0,41,0.00,,,0.00,,2013-03-24 19:42:00,
2013-03-24 15:53:00,39.0,18.0,29.78,NNE,12,4.0,8.0,43,0.00,,,0.00,,2013-03-24 19:53:00,
2013-03-24 16:03:00,39.0,19.0,29.77,ENE,63,6.0,9.0,44,0.00,,,0.00,,2013-03-24 20:03:00,
2013-03-24 16:12:00,39.0,19.0,29.77,ENE,63,6.0,9.0,44,0.00,,,0.00,,2013-03-24 20:12:00,
2013-03-24 16:22:00,39.0,19.0,29.75,NE,49,5.0,9.0,45,0.00,,,0.00,,2013-03-24 20:22:00,
2013-03-24 16:32:00,38.0,19.0,29.74,NE,35,3.0,10.0,45,0.00,,,0.00,,2013-03-24 20:32:00,
2013-03-24 16:42:00,38.0,19.0,29.74,NE,35,3.0,10.0,45,0.00,,,0.00,,2013-03-24 20:42:00,
2013-03-24 16:53:00,39.0,19.0,29.74,NE,35,3.0,8.0,45,0.00,,,0.00,,2013-03-24 20:53:00,
2013-03-24 17:02:00,38.0,18.0,29.74,NE,42,3.0,10.0,44,0.00,,,0.00,,2013-03-24 21:02:00,
2013-03-24 17:12:00,38.0,18.0,29.74,NE,42,3.0,10.0,44,0.00,,,0.00,,2013-03-24 21:12:00,
2013-03-24 17:22:00,38.0,19.0,29.73,NE,37,6.0,8.0,45,0.00,,,0.00,,2013-03-24 21:22:00,
2013-03-24 17:33:00,38.0,19.0,29.73,NNE,23,3.0,10.0,45,0.00,,,0.00,,2013-03-24 21:33:00,
2013-03-24 17:43:00,38.0,19.0,29.73,NNE,23,3.0,10.0,45,0.00,,,0.00,,2013-03-24 21:43:00,
2013-03-24 17:53:00,37.0,18.0,29.74,NNE,17,2.0,10.0,45,0.00,,,0.00,,2013-03-24 21:53:00,
2013-03-24 18:03:00,37.0,18.0,29.74,NNE,13,4.0,7.0,45,0.00,,,0.00,,2013-03-24 22:03:00,
2013-03-24 18:13:00,36.0,17.0,29.74,NE,39,2.0,5.0,46,0.00,,,0.00,,2013-03-24 22:13:00,
2013-03-24 18:23:00,36.0,17.0,29.74,NE,39,2.0,5.0,46,0.00,,,0.00,,2013-03-24 22:23:00,
2013-03-24 18:33:00,35.0,17.0,29.73,NNE,20,3.0,6.0,47,0.00,,,0.00,,2013-03-24 22:33:00,
2013-03-24 18:43:00,35.0,17.0,29.73,NNE,20,3.0,6.0,47,0.00,,,0.00,,2013-03-24 22:43:00,
2013-03-24 18:53:00,34.0,16.0,29.74,NNE,21,3.0,8.0,48,0.00,,,0.00,,2013-03-24 22:53:00,
2013-03-24 19:03:00,33.0,16.0,29.74,NNE,22,1.0,4.0,49,0.00,,,0.00,,2013-03-24 23:03:00,
2013-03-24 19:12:00,33.0,16.0,29.74,NNE,22,1.0,4.0,49,0.00,,,0.00,,2013-03-24 23:12:00,
2013-03-24 19:22:00,32.0,15.0,29.73,NNE,24,3.0,5.0,50,0.00,,,0.00,,2013-03-24 23:22:00,
2013-03-24 19:32:00,31.0,15.0,29.72,NNE,22,2.0,4.0,52,0.00,,,0.00,,2013-03-24 23:32:00,
2013-03-24 19:42:00,31.0,15.0,29.72,NNE,22,2.0,4.0,52,0.00,,,0.00,,2013-03-24 23:42:00,
2013-03-24 19:53:00,31.0,16.0,29.73,NNE,22,2.0,5.0,53,0.00,,,0.00,,2013-03-24 23:53:00,
2013-03-24 20:02:00,30.0,15.0,29.72,NNE,28,2.0,5.0,53,0.00,,,0.00,,2013-03-25 00:02:00,
2013-03-24 20:12:00,30.0,15.0,29.72,NNE,28,2.0,5.0,53,0.00,,,0.00,,2013-03-25 00:12:00,
2013-03-24 20:22:00,30.0,15.0,29.72,NE,37,3.0,5.0,54,0.00,,,0.00,,2013-03-25 00:22:00,
2013-03-24 20:32:00,30.0,16.0,29.72,NNE,22,2.0,4.0,55,0.00,,,0.00,,2013-03-25 00:32:00,
2013-03-24 20:42:00,30.0,16.0,29.72,NNE,22,2.0,4.0,55,0.00,,,0.00,,2013-03-25 00:42:00,
2013-03-24 20:53:00,29.0,15.0,29.71,NNE,31,3.0,6.0,55,0.00,,,0.00,,2013-03-25 00:53:00,
2013-03-24 21:02:00,29.0,16.0,29.73,NNE,28,3.0,5.0,57,0.00,,,0.00,,2013-03-25 01:02:00,
2013-03-24 21:12:00,29.0,16.0,29.73,NNE,28,3.0,5.0,57,0.00,,,0.00,,2013-03-25 01:12:00,
2013-03-24 21:22:00,29.0,16.0,29.74,NNE,22,1.0,4.0,58,0.00,,,0.00,,2013-03-25 01:22:00,
2013-03-24 21:32:00,28.0,16.0,29.73,ENE,67,0.0,2.0,59,0.00,,,0.00,,2013-03-25 01:32:00,
2013-03-24 21:42:00,28.0,16.0,29.73,ENE,67,0.0,2.0,59,0.00,,,0.00,,2013-03-25 01:42:00,
2013-03-24 21:52:00,28.0,16.0,29.73,ENE,59,2.0,3.0,61,0.00,,,0.00,,2013-03-25 01:52:00,
2013-03-24 22:02:00,27.0,15.0,29.73,NE,45,0.0,0.0,61,0.00,,,0.00,,2013-03-25 02:02:00,
2013-03-24 22:12:00,27.0,15.0,29.73,NE,45,0.0,0.0,61,0.00,,,0.00,,2013-03-25 02:12:00,
2013-03-24 22:22:00,27.0,15.0,29.73,NE,45,0.0,0.0,61,0.00,,,0.00,,2013-03-25 02:22:00,
2013-03-24 22:33:00,26.0,16.0,29.72,ENE,67,0.0,0.0,64,0.00,,,0.00,,2013-03-25 02:33:00,
2013-03-24 22:42:00,26.0,16.0,29.72,ENE,67,0.0,0.0,64,0.00,,,0.00,,2013-03-25 02:42:00,
2013-03-24 22:52:00,26.0,16.0,29.72,ENE,67,0.0,0.0,64,0.00,,,0.00,,2013-03-25 02:52:00,
2013-03-24 23:02:00,26.0,16.0,29.72,ENE,67,0.0,0.0,65,0.00,,,0.00,,2013-03-25 03:02:00,
2013-03-24 23:13:00,26.0,16.0,29.72,ENE,67,0.0,0.0,65,0.00,,,0.00,,2013-03-25 03:13:00,
2013-03-24 23:23:00,25.0,16.0,29.71,ENE,67,0.0,0.0,67,0.00,,,0.00,,2013-03-25 03:23:00,
2013-03-24 23:33:00,26.0,17.0,29.70,ENE,67,0.0,0.0,68,0.00,,,0.00,,2013-03-25 03:33:00,
2013-03-24 23:43:00,26.0,17.0,29.70,ENE,67,0.0,0.0,68,0.00,,,0.00,,2013-03-25 03:43:00,
2013-03-24 23:53:00,26.0,17.0,29.70,ENE,67,0.0,0.0,68,0.00,,,0.00,,2013-03-25 03:53:00,